Location: Observatory
(52.1446°N, 0.4624°W)
Time: 04:49:23
(UTC+01:00)

ISS - Pass Details

Date: 27 May 2019
Orbit: 408 x 418 km, 51.6° (Epoch: 18 June)

Event Time Altitude Azimuth Distance (km) Brightness Sun altitude
Rises 22:18:18 0° 277° (W) 2,356 0.8 -8.6°
Reaches altitude 10° 22:20:23 10° 275° (W) 1,494 -0.3 -8.8°
Maximum altitude 22:23:44 73° 192° (SSW) 442 -3.8 -9.1°
Drops below altitude 10° 22:27:05 10° 107° (ESE) 1,498 -1.4 -9.4°
Enters shadow 22:27:21 - 106° (ESE) 1,608 -1.3 -9.4°
